sat.trackr.live / text

‹ back to catalog

STARLINK-3717

NORAD 52096 · 2022-029J

PAYLOAD ACTIVE UNKNOWN

§ Identity

Operator
Country
US
Launch date
2022-03-19
Launch site
AFETR
Launch vehicle
Mass (kg)
RCS (m²)

Purposes: comms

External: N2YO · Heavens-Above · Gunter

§ Orbital elements

Epoch: 2026-09-19T17:57:31.830048Z

Period
93.79 min
Inclination
53.1597°
Eccentricity
0.0001317
Mean motion
15.35382253 rev/d
Perigee alt
458.9 km
Apogee alt
460.7 km
Semi-major
6,837.9 km
B*
-1.3097e-5
RAAN
273.4919°
Arg perigee
89.5641°
Mean anomaly
270.5513°
Rev number
25,027

§ Raw data

STARLINK-37171 52096U 22029J   26262.74828507 -.00000837  00000+0 -13097-4 0  99992 52096  53.1597 273.4919 0001317  89.5641 270.5513 15.35382253250270

JSON: /api/v1/satellites/52096 · /tle

For live sub-satellite position, see the globe view (requires WebGL).

§ Visibility from observer

Set your observer location to see the next 7 days of passes ≥ 10°. The values pass through the URL so the page stays shareable.

No JS? Fill the form by hand. The geolocation button needs JavaScript.